World > North America > United States > Texas > Overton   City of Overton, TX

Overton, TX Hourly Weather Updates

Feedback E-mail the Weather

Quick Clicks

Overton, TX Weather Maps

°F °C°F °C
Overton Weather Map
UTC Time: 4/19/2024, 15:45
Your Time:

Overton, TX Regional Weather

Expires:202404191600;;019705
ASUS44 KFWD 191515
RWRTX 
NORTH TEXAS HOURLY WEATHER ROUNDUP
NATIONAL WEATHER SERVICE FORT WORTH TX
1000 AM CDT FRI APR 19 2024

NOTE: "FAIR" INDICATES FEW OR NO CLOUDS BELOW 12,000 FEET WITH NO
SIGNIFICANT WEATHER AND/OR OBSTRUCTIONS TO VISIBILITY.


TXZ095>097-106>112-122>126-135>138-148>153-164>167-191600-
EAST TEXAS
  
CITY           SKY/WX    TMP DP  RH WIND       PRES   REMARKS
PARIS          CLOUDY    61  54  77 N10       30.11R                  
SULPHUR SPRNGS CLOUDY    61  54  76 N7        30.14R                  
MOUNT PLEASANT CLOUDY    62  58  89 NW6       30.10S                  
GILMER         CLOUDY    62  55  76 N5        30.10S                  
MINEOLA        CLOUDY    61  54  77 N6        30.11R                  
TYLER          CLOUDY    63  54  72 N9        30.10R                  
LONGVIEW       CLOUDY    65  58  78 N7        30.08R                  
MARSHALL       FAIR      67  64  89 NW8       30.06R                  
ATHENS         CLOUDY    61  54  77 N6        30.09S                  
PALESTINE      CLOUDY    63  59  88 N8        30.07R                  
JACKSONVILLE   CLOUDY    64  60  88 NE6       30.10R                  
HENDERSON      CLOUDY    70  60  72 N5        30.10R                  
CENTER         CLOUDY    72  70  94 S3        30.07S FOG              
NACOGDOCHES    CLOUDY    72  72 100 CALM      30.07R                  
LUFKIN         FAIR      76  69  79 CALM      30.05R                  
$$

SUPPLEMENTAL OBSERVATIONS (NWS FORT WORTH AREA)
  
CITY           SKY/WX    TMP DP  RH WIND       PRES   REMARKS
CADDO GRASSLND   N/A     63  52  67 N5G14       N/A                   
LBJ GRASSLAND    N/A     57  48  72 N5          N/A                   
POSSUM KINGDOM   N/A     55  46  71 N10         N/A                   
GRANBURY         N/A     61  50  67 N6G14       N/A                   
COMANCHE         N/A     57  48  72 N12         N/A                   
MCGREGOR         N/A     63  54  72 N7          N/A                   
TEMPLE           N/A     63  54  72 VRB10G18    N/A                   
LAKE LIMESTONE   N/A     64  59  82 N8          N/A                   
PALESTINE        N/A     63  57  82 N5          N/A                   
$$

SUPPLEMENTAL OBSERVATIONS (NWS NORMAN AREA)
  
CITY           SKY/WX    TMP DP  RH WIND       PRES   REMARKS
GOODLETT         N/A     51  37  59 NE17      30.23                   
ODELL            N/A     53  40  62 NE15      30.23F                  
CROWELL          N/A     51  39  63 NE13      30.24R                  
KNOX CITY        N/A     52  39  61 NE14      30.23                   
SEYMOUR          N/A     52  41  66 N16       30.22F                  
MILLERS CREEK    N/A     52  41  66 N14         N/A                   
$$

SUPPLEMENTAL OBSERVATIONS (NWS SAN ANGELO AREA)
  
CITY           SKY/WX    TMP DP  RH WIND       PRES   REMARKS
WEINERT          N/A     51  40  66 NE14      30.22F                  
HASKELL          N/A     51  40  67 N13       30.21                   
THROCKMORTON     N/A     51  44  75 N7        30.21                   
STAMFORD         N/A     52  42  70 N15       30.23                   
CLYDE            N/A     51  46  83 N12       30.22R                  
HAMBY            N/A     54  45  71 N6G14       N/A                   
IVIE RESERVOIR   N/A     59  48  67 N9          N/A                   
COLORADO BEND    N/A     61  54  77 N7          N/A                   
$$

SUPPLEMENTAL OBSERVATIONS (NWS SHREVEPORT AREA)
  
CITY           SKY/WX    TMP DP  RH WIND       PRES   REMARKS
TEXARKANA        N/A     64  59  82 NE5         N/A                   
CADDO LAKE       N/A     72  64  78 W1          N/A                   
LUFKIN           N/A     77  68  73 MISG        N/A                   
N SABINE NF      N/A     72  68  88 MISG        N/A                   
$$

SUPPLEMENTAL OBSERVATIONS ARE A COLLECTION OF AUTOMATED INSTRUMENTS
THAT ARE MAINTAINED BY A VARIETY OF FEDERAL AND STATE AGENCIES. 
CERTAIN ELEMENTS...SUCH AS HUMIDITY VALUES AND SUSTAINED WIND 
SPEEDS...MAY BE APPROXIMATED.

  

SKY/WX - Weather  TMP - Temperature  DP - Dew Point  RH - Humidity
WIND - Wind Direction/Speed PRES - Barometric Pressure VSB - Visibility
WCI - Wind Chill Index E13G22 Wind - East Wind 13 mph/Gusts of 22 mph

Trending Headlines

Trending Entertainment Headlines

Overton Radar Loop

Use the map search tool if you want to place a location marker on the radar map...

Overton Quick Facts

National Two Day Weather Forecast


E-mail the Overton Weather Forecast

Voice your opinion or tell us about page issues...